Location: Earls Croome
(52.0667°N, 2.2000°W)
Time: 17:12:10
(UTC+00:00)

Cosmos 2322 Rocket - Pass Details

Date: 17 November 2019
Orbit: 833 x 851 km, 71.0° (Epoch: 06 December)

Event Time Altitude Azimuth Distance (km) Brightness Sun altitude
Exits shadow 03:19:05 25° 37° (NE) 1,666 4.1 -38.2°
Drops below altitude 10° 03:23:39 10° 91° (E) 2,470 5.3 -37.5°
Sets 03:26:34 0° 105° (ESE) 3,405 6.0 -37.1°
